Torna al catalogo

TOMORROW-S11

AttivoMeteoSSO
NORAD 67399·PAYLOAD·🇺🇸 United States

Lanciato Jan 11, 2026 da Vandenberg Space Force Base

Loading…

Prossimi Passaggi (prossime 24 ore)

TLE

AggiornatoSource: Space-Track

Epoca: Sep 14, 2026, 07:16 UTC

1 67399U 26004AN  26257.30287412  .00006555  00000-0  30513-3 0  9991
2 67399  97.4624 255.5520 0008380  44.6686 315.5223 15.20235762 37302

Traccia TOMORROW-S11 in tempo reale con AllMySat

Download on the App Store